Location: Apalco
(33.3585°N, 93.4602°W)
Time: 11:35:15
(UTC+00:00)

Tiangong - Pass Details

Date: 26 September 2021
Orbit: 382 x 385 km, 41.5° (Epoch: 18 October)

Event Time Altitude Azimuth Distance (km) Brightness Sun altitude
Exits shadow 08:38:40 -5° 84° (E) 2,863 6.3 -41.9°
Enters shadow 09:35:04 -64° 241° (WSW) 11,839 8.6 -31.5°
Drops below altitude 10° 10:12:41 10° 75° (ENE) 1,392 5.0 -24.0°
Sets 10:14:49 0° 68° (ENE) 2,246 6.4 -23.6°
